Location: Unspecified
(0.0000°N, 0.0000°E)
Time: 13:43:46
(UTC+00:00)

AO-40 - Pass Details

Date: 30 January 2022
Orbit: 908 x 58912 km, 6.9° (Epoch: 25 May)

Event Time Altitude Azimuth Distance (km) Brightness Sun altitude
Rises 20:39:08 0° 277° (W) 15,812 ? -34.5°
Reaches altitude 10° 20:52:16 10° 278° (W) 18,159 ? -37.6°
Maximum altitude 22:06:35 25° 278° (W) 31,756 ? -54.3°
Drops below altitude 10° 00:35:26 10° 275° (W) 51,690 ? -71.7°
Sets 01:37:28 0° 275° (W) 57,596 ? -63.0°
